Precipitable_Water
0.56 0.56 0.56 0.56 0.56 0.55 0.56 0.56 0.55 0.55 0.55 0.53 0.52 0.51 0.51 0.51 0.51 0.51 0.51 0.51 0.52 0.53 0.54 0.53 0.54 0.55 0.54 0.52 0.49 0.47 0.45 0.32 0.23 0.19 0.20 0.16 0.20 0.31 0.35 0.39 0.39 0.42 0.40 0.32 0.41 0.55 0.53 0.57 0.65 0.95 1.00 1.07 1.07 1.04 1.21 1.28 1.29 1.27 1.08 1.01 0.95 1.10 1.10 1.24 1.21 1.32 1.48 1.32 1.45 1.44 1.52 1.45 1.31 1.41 1.44 1.52 1.35 1.27 1.20 1.10 1.10 1.18 1.11 1.09 1.17 1.26 1.28 1.34
0.57 0.56 0.55 0.55 0.55 0.56 0.56 0.55 0.55 0.55 0.55 0.54 0.53 0.52 0.50 0.50 0.49 0.48 0.47 0.48 0.49 0.50 0.53 0.55 0.54 0.54 0.54 0.53 0.53 0.51 0.44 0.33 0.23 0.23 0.16 0.14 0.29 0.32 0.39 0.43 0.41 0.39 0.34 0.27 0.35 0.44 0.52 0.58 0.71 0.81 0.91 0.91 1.13 1.00 1.21 1.16 1.26 1.12 1.12 1.06 0.93 1.11 1.21 1.42 1.44 1.46 1.47 1.41 1.53 1.55 1.57 1.51 1.40 1.43 1.44 1.31 1.27 1.17 1.12 1.07 1.09 1.10 1.10 1.16 1.16 1.19 1.20 1.27
0.59 0.58 0.56 0.56 0.56 0.56 0.56 0.55 0.55 0.55 0.55 0.55 0.54 0.53 0.51 0.50 0.48 0.47 0.45 0.45 0.46 0.47 0.49 0.52 0.54 0.54 0.52 0.53 0.53 0.53 0.45 0.30 0.28 0.18 0.26 0.39 0.29 0.28 0.41 0.43 0.37 0.36 0.29 0.24 0.34 0.50 0.61 0.73 0.84 0.79 0.86 0.83 1.01 1.00 1.16 1.12 1.24 1.27 1.09 0.96 1.06 1.27 1.32 1.47 1.57 1.53 1.70 1.69 1.58 1.49 1.55 1.49 1.48 1.39 1.51 1.30 1.26 1.30 1.00 0.93 1.03 0.97 0.97 1.02 1.08 1.11 1.14 1.24
0.60 0.59 0.58 0.58 0.57 0.57 0.57 0.57 0.56 0.56 0.56 0.55 0.55 0.55 0.53 0.51 0.50 0.48 0.46 0.44 0.44 0.44 0.46 0.49 0.52 0.54 0.52 0.51 0.53 0.54 0.47 0.31 0.24 0.38 0.49 0.46 0.35 0.25 0.36 0.40 0.35 0.33 0.30 0.27 0.43 0.58 0.72 0.83 0.90 0.83 0.73 0.77 0.92 1.11 1.06 1.19 1.06 1.32 1.20 1.07 1.13 1.31 1.27 1.45 1.61 1.67 1.75 1.74 1.61 1.53 1.55 1.40 1.44 1.42 1.42 1.31 1.15 1.12 1.01 1.04 0.98 0.93 0.96 0.98 1.03 1.05 1.12 1.19
0.59 0.59 0.58 0.58 0.58 0.58 0.58 0.58 0.58 0.58 0.57 0.56 0.55 0.55 0.54 0.51 0.50 0.49 0.47 0.44 0.43 0.43 0.43 0.45 0.49 0.51 0.52 0.52 0.51 0.54 0.35 0.28 0.41 0.55 0.63 0.57 0.40 0.29 0.32 0.33 0.31 0.26 0.24 0.25 0.42 0.53 0.61 0.70 0.78 0.75 0.74 0.74 0.91 1.01 1.07 1.17 1.31 1.31 1.27 1.32 1.29 1.35 1.28 1.52 1.64 1.76 1.75 1.77 1.69 1.55 1.39 1.36 1.48 1.39 1.31 1.26 1.09 1.01 1.04 1.08 1.13 1.04 1.02 0.98 0.98 1.02 1.11 1.16
0.58 0.58 0.58 0.58 0.59 0.59 0.59 0.59 0.59 0.58 0.58 0.58 0.56 0.55 0.54 0.52 0.50 0.48 0.47 0.45 0.43 0.43 0.42 0.44 0.46 0.48 0.50 0.51 0.49 0.46 0.29 0.16 0.37 0.57 0.64 0.53 0.48 0.39 0.32 0.31 0.25 0.21 0.21 0.26 0.41 0.54 0.60 0.67 0.69 0.63 0.66 0.75 0.81 0.85 1.05 1.12 1.27 1.09 1.36 1.33 1.32 1.39 1.31 1.52 1.64 1.72 1.74 1.67 1.59 1.43 1.46 1.42 1.26 1.15 1.24 1.24 1.16 1.19 1.23 1.17 1.19 1.12 1.05 1.05 1.04 1.02 1.07 1.11
0.58 0.58 0.58 0.58 0.59 0.59 0.59 0.59 0.60 0.59 0.58 0.59 0.58 0.56 0.55 0.53 0.51 0.49 0.47 0.45 0.44 0.41 0.42 0.43 0.45 0.46 0.45 0.47 0.49 0.38 0.26 0.22 0.27 0.63 0.63 0.56 0.49 0.43 0.34 0.29 0.25 0.19 0.19 0.27 0.44 0.49 0.55 0.62 0.62 0.57 0.62 0.72 0.76 0.91 1.03 1.12 1.24 1.16 1.20 1.36 1.32 1.45 1.41 1.59 1.59 1.70 1.66 1.59 1.47 1.52 1.51 1.23 1.14 0.97 1.21 1.21 1.26 1.32 1.29 1.23 1.20 1.15 1.10 1.08 1.00 1.00 1.03 1.07
0.60 0.58 0.57 0.58 0.58 0.59 0.59 0.60 0.60 0.60 0.60 0.59 0.58 0.57 0.55 0.53 0.51 0.49 0.47 0.45 0.43 0.43 0.42 0.44 0.45 0.44 0.45 0.36 0.27 0.28 0.35 0.31 0.59 0.75 0.67 0.63 0.50 0.40 0.30 0.25 0.21 0.17 0.18 0.30 0.45 0.48 0.56 0.56 0.54 0.60 0.59 0.63 0.75 0.83 1.04 1.15 1.22 1.19 1.24 1.43 1.36 1.48 1.56 1.62 1.61 1.61 1.62 1.57 1.51 1.40 1.22 1.16 1.14 1.03 1.14 1.19 1.27 1.31 1.29 1.23 1.17 1.13 1.08 1.05 1.01 0.98 1.04 1.07
0.60 0.58 0.57 0.56 0.58 0.59 0.59 0.60 0.60 0.60 0.60 0.59 0.57 0.56 0.53 0.52 0.51 0.50 0.47 0.45 0.43 0.43 0.44 0.45 0.43 0.45 0.46 0.35 0.21 0.23 0.37 0.53 0.80 0.79 0.68 0.57 0.46 0.37 0.22 0.16 0.19 0.15 0.17 0.33 0.47 0.54 0.60 0.56 0.54 0.59 0.59 0.69 0.77 0.77 0.96 0.99 1.08 1.30 1.34 1.44 1.37 1.41 1.52 1.59 1.58 1.56 1.56 1.52 1.48 1.24 1.15 1.19 1.18 1.18 1.09 1.19 1.24 1.31 1.28 1.18 1.13 1.09 1.05 1.01 0.99 0.99 1.03 1.05
0.60 0.58 0.56 0.56 0.57 0.59 0.60 0.60 0.61 0.61 0.60 0.58 0.56 0.54 0.52 0.51 0.51 0.49 0.47 0.44 0.43 0.43 0.44 0.44 0.45 0.43 0.37 0.30 0.24 0.19 0.48 0.72 0.79 0.74 0.65 0.56 0.38 0.28 0.17 0.14 0.15 0.16 0.17 0.29 0.50 0.55 0.55 0.59 0.52 0.62 0.67 0.63 0.71 0.74 0.91 0.96 0.95 1.35 1.39 1.36 1.34 1.42 1.45 1.54 1.46 1.48 1.54 1.51 1.41 1.16 1.10 1.13 1.22 1.19 0.96 1.25 1.25 1.30 1.22 1.13 1.13 1.05 1.01 1.01 0.98 0.99 1.04 1.05
0.58 0.56 0.54 0.53 0.55 0.57 0.59 0.60 0.60 0.61 0.60 0.58 0.56 0.54 0.51 0.50 0.49 0.48 0.45 0.44 0.43 0.43 0.45 0.43 0.45 0.42 0.27 0.31 0.18 0.18 0.45 0.50 0.74 0.67 0.61 0.57 0.36 0.25 0.14 0.14 0.17 0.15 0.18 0.35 0.52 0.57 0.65 0.63 0.59 0.53 0.57 0.56 0.70 0.89 1.05 1.09 1.29 1.35 1.35 1.35 1.36 1.43 1.46 1.48 1.48 1.46 1.52 1.34 1.41 1.28 1.16 1.23 1.26 1.20 1.05 1.17 1.24 1.23 1.14 1.09 1.08 1.02 1.02 1.02 0.98 0.99 1.04 1.07
0.56 0.53 0.51 0.51 0.52 0.55 0.56 0.58 0.60 0.60 0.59 0.58 0.56 0.53 0.51 0.49 0.47 0.45 0.44 0.44 0.44 0.44 0.43 0.43 0.44 0.43 0.33 0.25 0.17 0.16 0.43 0.44 0.42 0.66 0.60 0.55 0.34 0.26 0.16 0.15 0.20 0.17 0.20 0.38 0.50 0.63 0.66 0.64 0.55 0.49 0.44 0.72 0.66 0.87 1.04 1.22 1.37 1.34 1.25 1.06 1.22 1.39 1.33 1.46 1.36 1.41 1.52 1.36 1.52 1.46 1.21 1.09 1.11 1.04 1.15 1.22 1.23 1.17 1.13 1.06 1.04 1.00 1.02 1.02 0.99 1.01 1.03 1.03
0.55 0.52 0.50 0.50 0.52 0.54 0.56 0.57 0.58 0.58 0.57 0.56 0.55 0.53 0.50 0.49 0.47 0.45 0.44 0.44 0.45 0.44 0.45 0.46 0.45 0.43 0.30 0.13 0.22 0.34 0.34 0.43 0.39 0.71 0.66 0.53 0.37 0.29 0.20 0.18 0.24 0.23 0.26 0.41 0.50 0.60 0.63 0.60 0.54 0.46 0.51 0.52 0.56 0.75 1.24 1.28 1.27 1.30 1.21 1.04 1.04 1.17 1.17 1.40 1.48 1.46 1.45 1.46 1.56 1.42 0.85 0.95 1.02 1.08 1.16 1.23 1.19 1.14 1.08 1.03 1.02 1.00 1.03 1.01 0.99 1.02 1.02 1.02
0.53 0.51 0.49 0.50 0.51 0.53 0.55 0.56 0.57 0.55 0.54 0.54 0.54 0.53 0.51 0.49 0.47 0.45 0.45 0.45 0.47 0.45 0.43 0.48 0.47 0.34 0.30 0.17 0.34 0.43 0.36 0.36 0.32 0.34 0.50 0.50 0.36 0.31 0.23 0.20 0.29 0.32 0.37 0.41 0.48 0.58 0.53 0.54 0.52 0.50 0.51 0.50 0.49 0.72 1.04 1.13 1.23 1.02 1.16 1.12 0.93 0.90 0.98 1.36 1.40 1.39 1.28 1.53 1.54 1.46 0.89 0.96 1.08 1.13 1.18 1.19 1.16 1.08 1.00 1.01 1.01 1.00 1.03 1.00 0.99 1.04 1.00 1.02
0.51 0.49 0.48 0.48 0.51 0.53 0.54 0.55 0.54 0.53 0.53 0.53 0.53 0.53 0.52 0.53 0.52 0.48 0.48 0.47 0.48 0.49 0.49 0.49 0.45 0.41 0.27 0.23 0.47 0.51 0.42 0.34 0.23 0.30 0.45 0.44 0.35 0.32 0.25 0.22 0.28 0.35 0.41 0.44 0.48 0.52 0.54 0.48 0.47 0.42 0.41 0.52 0.58 0.64 0.83 0.99 1.10 1.07 0.93 0.82 0.99 0.87 0.97 1.24 1.44 1.36 1.15 1.38 1.55 1.39 0.98 1.00 1.10 1.16 1.19 1.14 1.13 1.12 0.96 0.99 1.00 1.00 1.01 1.01 1.02 1.03 0.99 1.01
0.49 0.47 0.48 0.48 0.50 0.52 0.54 0.54 0.52 0.51 0.52 0.52 0.53 0.55 0.56 0.60 0.62 0.62 0.59 0.53 0.48 0.49 0.55 0.44 0.56 0.47 0.33 0.21 0.38 0.48 0.41 0.30 0.23 0.29 0.47 0.45 0.38 0.34 0.27 0.24 0.33 0.38 0.42 0.44 0.48 0.49 0.50 0.45 0.37 0.37 0.39 0.51 0.58 0.62 0.71 0.83 0.92 1.02 0.88 0.83 0.88 0.97 0.95 1.09 1.30 1.40 1.37 1.33 1.45 1.31 1.02 1.12 1.10 1.23 1.16 1.08 1.12 1.12 0.99 0.96 0.98 1.00 1.01 1.03 1.00 1.00 0.98 0.96
0.47 0.47 0.46 0.47 0.49 0.52 0.53 0.54 0.51 0.51 0.51 0.52 0.55 0.57 0.60 0.62 0.65 0.69 0.66 0.58 0.50 0.54 0.47 0.38 0.46 0.55 0.21 0.44 0.50 0.35 0.29 0.28 0.29 0.38 0.50 0.50 0.47 0.46 0.37 0.28 0.30 0.33 0.39 0.44 0.47 0.47 0.49 0.38 0.35 0.34 0.40 0.45 0.59 0.68 0.62 0.61 0.75 0.79 0.93 0.84 0.95 0.92 1.00 0.95 1.28 1.36 1.37 1.27 1.18 1.34 1.19 1.18 1.20 1.23 1.18 1.07 1.10 1.09 1.01 0.98 0.97 1.00 1.03 1.03 1.03 1.00 0.95 0.92
0.47 0.47 0.47 0.46 0.50 0.51 0.53 0.53 0.52 0.50 0.52 0.54 0.56 0.59 0.63 0.70 0.75 0.75 0.70 0.62 0.56 0.60 0.57 0.58 0.49 0.48 0.34 0.50 0.34 0.36 0.37 0.31 0.39 0.52 0.56 0.56 0.60 0.57 0.48 0.33 0.32 0.32 0.35 0.37 0.46 0.38 0.44 0.32 0.30 0.25 0.36 0.43 0.50 0.54 0.51 0.49 0.58 0.73 0.77 0.78 0.88 1.02 1.06 0.98 1.00 1.20 1.29 1.25 1.12 1.25 1.24 1.23 1.25 1.26 1.19 1.13 1.12 1.05 1.03 1.05 1.03 1.03 1.05 1.03 1.05 1.01 0.95 0.92
0.47 0.47 0.46 0.47 0.49 0.52 0.54 0.53 0.51 0.51 0.53 0.54 0.57 0.63 0.71 0.78 0.84 0.86 0.62 0.56 0.48 0.49 0.46 0.47 0.44 0.29 0.22 0.33 0.40 0.38 0.35 0.47 0.56 0.49 0.39 0.43 0.49 0.56 0.50 0.43 0.37 0.31 0.29 0.30 0.37 0.35 0.39 0.31 0.28 0.22 0.25 0.35 0.45 0.52 0.53 0.63 0.68 0.74 0.81 0.84 0.88 0.90 0.97 1.02 1.13 1.31 1.27 1.12 1.08 1.12 1.06 1.16 1.25 1.25 1.22 1.20 1.15 1.05 1.06 1.11 1.11 1.08 1.08 1.04 1.04 1.02 0.93 0.93
0.48 0.47 0.47 0.47 0.50 0.53 0.53 0.53 0.50 0.51 0.53 0.49 0.46 0.54 0.63 0.59 0.56 0.60 0.62 0.57 0.40 0.32 0.33 0.37 0.42 0.40 0.39 0.39 0.43 0.60 0.67 0.64 0.50 0.46 0.43 0.41 0.38 0.42 0.42 0.41 0.35 0.34 0.34 0.23 0.33 0.30 0.37 0.23 0.20 0.16 0.21 0.31 0.44 0.54 0.58 0.69 0.79 0.92 0.91 0.89 0.92 0.98 1.01 1.19 1.21 1.30 1.37 1.19 1.08 1.10 1.14 1.14 1.22 1.25 1.31 1.28 1.23 1.12 1.07 1.09 1.11 1.10 1.08 1.04 1.04 1.01 0.93 0.97
0.48 0.48 0.47 0.49 0.51 0.53 0.54 0.53 0.51 0.50 0.52 0.46 0.46 0.44 0.34 0.35 0.32 0.29 0.36 0.37 0.42 0.43 0.41 0.40 0.37 0.40 0.37 0.41 0.50 0.48 0.45 0.49 0.45 0.41 0.44 0.42 0.41 0.39 0.36 0.35 0.31 0.27 0.29 0.27 0.28 0.31 0.30 0.22 0.18 0.19 0.19 0.27 0.34 0.46 0.62 0.72 0.76 0.88 0.88 0.88 0.89 1.01 0.96 1.15 1.18 1.35 1.45 1.22 1.08 1.19 1.14 1.12 1.19 1.28 1.38 1.36 1.24 1.14 1.06 1.07 1.12 1.13 1.11 1.07 1.05 1.03 0.93 1.01
0.48 0.48 0.48 0.50 0.52 0.53 0.53 0.52 0.50 0.51 0.52 0.48 0.44 0.37 0.37 0.43 0.47 0.54 0.43 0.26 0.38 0.42 0.48 0.44 0.44 0.37 0.40 0.39 0.45 0.47 0.42 0.40 0.36 0.40 0.48 0.37 0.39 0.29 0.34 0.32 0.30 0.23 0.25 0.24 0.25 0.24 0.19 0.17 0.18 0.19 0.21 0.23 0.32 0.41 0.53 0.58 0.69 0.83 0.82 0.82 0.82 0.88 1.05 1.17 1.21 1.35 1.42 1.31 1.07 1.16 1.15 1.13 1.20 1.26 1.37 1.36 1.30 1.30 1.25 1.19 1.16 1.17 1.14 1.07 1.05 1.05 1.02 1.03
0.49 0.49 0.50 0.52 0.54 0.53 0.53 0.52 0.49 0.50 0.44 0.40 0.37 0.44 0.40 0.42 0.53 0.54 0.47 0.34 0.28 0.42 0.41 0.47 0.43 0.27 0.27 0.37 0.40 0.43 0.31 0.30 0.34 0.37 0.45 0.38 0.35 0.30 0.35 0.31 0.30 0.25 0.23 0.22 0.19 0.19 0.16 0.15 0.18 0.21 0.25 0.24 0.32 0.38 0.45 0.50 0.60 0.68 0.87 0.74 0.68 0.86 0.86 0.83 1.12 1.29 1.36 1.21 1.11 1.19 1.08 1.18 1.27 1.30 1.33 1.38 1.38 1.37 1.39 1.31 1.24 1.24 1.20 1.12 1.06 1.06 1.06 1.04
0.50 0.51 0.52 0.54 0.55 0.54 0.53 0.50 0.51 0.47 0.42 0.42 0.44 0.45 0.53 0.56 0.53 0.55 0.35 0.26 0.29 0.36 0.40 0.47 0.43 0.32 0.24 0.24 0.38 0.35 0.29 0.32 0.38 0.40 0.50 0.40 0.33 0.31 0.31 0.27 0.26 0.25 0.21 0.20 0.20 0.19 0.17 0.18 0.19 0.23 0.28 0.33 0.34 0.39 0.42 0.46 0.54 0.60 0.75 0.70 0.70 0.79 0.84 0.84 0.93 1.22 1.30 1.31 1.28 1.20 1.08 1.09 1.18 1.13 1.18 1.32 1.45 1.44 1.41 1.37 1.28 1.25 1.24 1.27 1.19 1.12 1.12 1.09
0.51 0.52 0.55 0.55 0.55 0.55 0.52 0.49 0.43 0.48 0.56 0.56 0.54 0.56 0.57 0.56 0.61 0.56 0.42 0.35 0.41 0.44 0.44 0.43 0.31 0.23 0.27 0.34 0.37 0.29 0.32 0.32 0.43 0.53 0.51 0.41 0.39 0.31 0.29 0.29 0.24 0.21 0.21 0.20 0.21 0.19 0.20 0.22 0.23 0.24 0.27 0.32 0.37 0.37 0.37 0.46 0.43 0.54 0.62 0.69 0.71 0.82 0.82 0.95 1.01 1.04 1.02 1.02 1.17 1.12 0.85 0.87 1.09 1.15 1.16 1.24 1.31 1.34 1.44 1.35 1.29 1.24 1.22 1.22 1.19 1.12 1.11 1.18
0.51 0.53 0.56 0.57 0.56 0.54 0.56 0.45 0.44 0.58 0.53 0.47 0.53 0.60 0.59 0.59 0.65 0.55 0.54 0.42 0.31 0.39 0.39 0.30 0.23 0.22 0.29 0.25 0.33 0.29 0.29 0.31 0.42 0.54 0.49 0.46 0.50 0.40 0.37 0.33 0.24 0.20 0.20 0.19 0.18 0.20 0.21 0.24 0.23 0.23 0.26 0.29 0.32 0.36 0.43 0.45 0.48 0.47 0.61 0.76 0.81 0.88 0.89 0.92 0.96 0.92 0.78 0.76 1.04 1.21 0.82 0.76 1.09 1.08 1.15 1.21 1.22 1.25 1.40 1.37 1.34 1.29 1.23 1.20 1.21 1.16 1.11 1.16
0.52 0.55 0.56 0.57 0.56 0.55 0.35 0.38 0.59 0.55 0.46 0.46 0.54 0.57 0.53 0.58 0.57 0.61 0.52 0.39 0.35 0.36 0.29 0.28 0.26 0.27 0.31 0.27 0.25 0.29 0.23 0.30 0.45 0.54 0.51 0.52 0.44 0.52 0.41 0.38 0.29 0.25 0.22 0.20 0.18 0.16 0.20 0.23 0.24 0.24 0.24 0.25 0.33 0.34 0.51 0.52 0.48 0.47 0.70 0.76 0.83 0.88 0.84 0.85 0.89 0.89 0.84 1.08 1.15 1.16 1.05 0.84 0.85 1.04 1.20 1.23 1.17 1.20 1.28 1.35 1.37 1.34 1.27 1.20 1.20 1.18 1.14 1.16
0.53 0.56 0.57 0.56 0.56 0.53 0.38 0.43 0.46 0.40 0.41 0.48 0.51 0.48 0.52 0.50 0.57 0.61 0.46 0.28 0.19 0.33 0.28 0.28 0.31 0.35 0.33 0.32 0.28 0.30 0.41 0.55 0.40 0.50 0.53 0.52 0.49 0.44 0.42 0.40 0.29 0.25 0.25 0.21 0.14 0.18 0.18 0.21 0.24 0.27 0.26 0.27 0.34 0.46 0.50 0.51 0.48 0.65 0.70 0.74 0.78 0.77 0.84 0.89 0.90 0.88 0.92 0.91 0.85 1.01 1.12 0.84 0.82 1.01 1.23 1.24 1.09 1.11 1.17 1.27 1.35 1.37 1.31 1.24 1.17 1.21 1.17 1.18
0.55 0.58 0.56 0.55 0.54 0.51 0.50 0.40 0.39 0.34 0.47 0.55 0.51 0.50 0.59 0.66 0.68 0.56 0.44 0.28 0.38 0.36 0.42 0.30 0.39 0.34 0.33 0.29 0.26 0.34 0.49 0.57 0.50 0.55 0.58 0.49 0.48 0.46 0.39 0.39 0.38 0.34 0.29 0.24 0.18 0.18 0.18 0.23 0.28 0.32 0.33 0.31 0.42 0.52 0.55 0.53 0.46 0.68 0.64 0.69 0.77 0.84 0.85 0.88 0.87 0.87 0.88 0.80 0.71 0.87 1.02 0.77 0.77 0.98 1.02 1.18 1.11 1.06 1.11 1.24 1.34 1.40 1.37 1.29 1.19 1.22 1.23 1.21
0.57 0.57 0.56 0.54 0.50 0.47 0.49 0.55 0.48 0.54 0.61 0.59 0.60 0.66 0.72 0.70 0.61 0.45 0.37 0.27 0.29 0.25 0.31 0.36 0.32 0.27 0.27 0.26 0.26 0.36 0.39 0.53 0.64 0.62 0.54 0.46 0.37 0.45 0.45 0.46 0.39 0.34 0.30 0.29 0.24 0.23 0.23 0.24 0.31 0.33 0.33 0.38 0.47 0.53 0.53 0.54 0.54 0.64 0.79 0.71 0.85 0.76 0.88 0.88 0.87 0.84 0.79 0.66 0.73 0.86 0.95 0.84 0.68 0.89 0.96 0.96 0.96 1.08 1.19 1.28 1.38 1.43 1.44 1.38 1.26 1.22 1.23 1.24
0.57 0.57 0.55 0.55 0.37 0.46 0.51 0.50 0.55 0.62 0.64 0.68 0.69 0.70 0.68 0.57 0.45 0.38 0.27 0.26 0.30 0.32 0.36 0.36 0.27 0.28 0.21 0.23 0.21 0.36 0.39 0.55 0.51 0.51 0.39 0.35 0.32 0.37 0.40 0.35 0.38 0.33 0.33 0.30 0.24 0.23 0.22 0.26 0.29 0.34 0.45 0.48 0.49 0.50 0.53 0.56 0.59 0.51 0.47 0.52 0.55 0.77 0.74 0.73 0.78 0.84 0.60 0.61 0.80 0.92 0.93 0.93 0.66 0.81 1.03 1.11 1.18 1.21 1.21 1.20 1.29 1.36 1.41 1.40 1.32 1.26 1.25 1.27
0.56 0.54 0.54 0.48 0.48 0.52 0.47 0.43 0.56 0.60 0.63 0.66 0.73 0.66 0.58 0.40 0.47 0.32 0.29 0.41 0.27 0.31 0.31 0.33 0.33 0.27 0.23 0.27 0.28 0.30 0.38 0.47 0.51 0.50 0.39 0.27 0.27 0.28 0.31 0.29 0.33 0.30 0.26 0.26 0.21 0.23 0.23 0.22 0.26 0.36 0.48 0.50 0.48 0.47 0.50 0.51 0.50 0.44 0.43 0.45 0.42 0.46 0.54 0.50 0.62 0.58 0.56 0.58 0.80 0.94 1.00 0.90 0.83 0.94 1.09 1.17 1.20 1.23 1.26 1.28 1.29 1.34 1.40 1.42 1.37 1.34 1.30 1.29
0.54 0.52 0.49 0.46 0.47 0.47 0.54 0.54 0.58 0.58 0.63 0.72 0.68 0.63 0.47 0.38 0.29 0.37 0.38 0.34 0.28 0.30 0.29 0.33 0.34 0.30 0.26 0.30 0.32 0.36 0.38 0.42 0.51 0.51 0.45 0.32 0.26 0.25 0.30 0.35 0.36 0.34 0.24 0.25 0.25 0.22 0.23 0.27 0.33 0.36 0.46 0.49 0.47 0.40 0.42 0.41 0.43 0.42 0.41 0.39 0.34 0.35 0.40 0.37 0.44 0.49 0.57 0.72 0.89 0.88 1.04 0.82 0.97 1.04 1.16 1.16 1.24 1.29 1.31 1.35 1.36 1.38 1.42 1.42 1.41 1.42 1.37 1.32
0.51 0.51 0.45 0.49 0.53 0.54 0.54 0.59 0.58 0.62 0.63 0.66 0.62 0.53 0.49 0.37 0.31 0.41 0.33 0.27 0.27 0.30 0.29 0.32 0.33 0.33 0.30 0.27 0.36 0.36 0.31 0.39 0.49 0.48 0.47 0.36 0.28 0.27 0.24 0.32 0.35 0.33 0.34 0.33 0.26 0.24 0.20 0.20 0.28 0.35 0.34 0.42 0.42 0.42 0.42 0.41 0.41 0.42 0.43 0.39 0.36 0.37 0.38 0.36 0.44 0.42 0.49 0.58 0.76 0.96 0.80 0.73 0.73 0.89 1.25 1.29 1.32 1.36 1.39 1.40 1.42 1.43 1.49 1.49 1.48 1.47 1.44 1.36
0.49 0.50 0.49 0.52 0.54 0.57 0.57 0.57 0.58 0.56 0.58 0.63 0.57 0.46 0.32 0.33 0.39 0.31 0.29 0.28 0.28 0.29 0.26 0.27 0.33 0.35 0.34 0.34 0.39 0.40 0.36 0.38 0.43 0.47 0.47 0.45 0.30 0.29 0.26 0.28 0.32 0.36 0.36 0.31 0.35 0.33 0.23 0.21 0.31 0.40 0.42 0.41 0.38 0.47 0.45 0.43 0.41 0.44 0.44 0.40 0.35 0.36 0.49 0.41 0.52 0.55 0.58 0.60 0.65 0.79 0.76 0.92 0.90 1.20 1.28 1.32 1.33 1.34 1.40 1.41 1.41 1.40 1.48 1.54 1.51 1.47 1.45 1.38
0.48 0.50 0.56 0.45 0.50 0.50 0.60 0.58 0.55 0.55 0.56 0.54 0.49 0.39 0.35 0.40 0.33 0.33 0.31 0.31 0.29 0.25 0.25 0.25 0.30 0.32 0.37 0.36 0.41 0.43 0.42 0.41 0.44 0.42 0.44 0.46 0.43 0.33 0.36 0.30 0.30 0.35 0.36 0.31 0.40 0.32 0.30 0.25 0.37 0.43 0.43 0.39 0.37 0.43 0.43 0.44 0.35 0.43 0.41 0.33 0.35 0.42 0.46 0.49 0.55 0.70 0.69 0.59 0.54 0.82 0.81 0.91 1.12 1.13 1.20 1.26 1.27 1.30 1.37 1.39 1.40 1.39 1.44 1.50 1.51 1.52 1.51 1.44
0.43 0.50 0.48 0.59 0.68 0.66 0.66 0.67 0.57 0.55 0.57 0.50 0.45 0.37 0.43 0.43 0.42 0.40 0.33 0.27 0.28 0.26 0.24 0.24 0.29 0.31 0.35 0.36 0.43 0.38 0.40 0.42 0.42 0.38 0.39 0.46 0.41 0.39 0.36 0.33 0.32 0.38 0.41 0.41 0.41 0.42 0.32 0.32 0.38 0.38 0.35 0.40 0.42 0.37 0.42 0.46 0.51 0.40 0.32 0.39 0.44 0.45 0.53 0.49 0.43 0.53 0.55 0.48 0.57 0.69 0.64 0.72 0.76 0.68 1.13 1.14 1.12 1.19 1.30 1.39 1.42 1.44 1.45 1.41 1.46 1.55 1.56 1.50
0.43 0.49 0.54 0.58 0.71 0.82 0.71 0.69 0.60 0.54 0.51 0.49 0.43 0.43 0.48 0.41 0.43 0.31 0.30 0.28 0.30 0.27 0.29 0.26 0.29 0.30 0.31 0.34 0.35 0.43 0.42 0.35 0.39 0.37 0.39 0.44 0.42 0.43 0.38 0.37 0.38 0.34 0.40 0.47 0.41 0.40 0.39 0.30 0.37 0.38 0.37 0.42 0.41 0.33 0.36 0.43 0.45 0.41 0.40 0.43 0.32 0.30 0.31 0.47 0.43 0.35 0.39 0.45 0.51 0.59 0.69 0.71 0.77 0.76 0.99 1.01 1.01 1.08 1.22 1.36 1.40 1.41 1.44 1.41 1.47 1.54 1.61 1.58
0.53 0.49 0.45 0.55 0.71 0.76 0.70 0.66 0.51 0.48 0.49 0.46 0.42 0.41 0.43 0.42 0.45 0.35 0.29 0.29 0.29 0.24 0.27 0.31 0.30 0.29 0.31 0.28 0.38 0.41 0.43 0.34 0.40 0.38 0.37 0.45 0.39 0.44 0.42 0.44 0.37 0.38 0.42 0.47 0.41 0.40 0.38 0.33 0.34 0.42 0.39 0.41 0.36 0.29 0.28 0.34 0.40 0.40 0.39 0.37 0.38 0.36 0.33 0.39 0.40 0.47 0.44 0.43 0.48 0.51 0.60 0.58 0.83 0.88 1.01 1.01 1.06 1.07 1.15 1.24 1.30 1.39 1.44 1.43 1.45 1.50 1.56 1.55
0.51 0.45 0.45 0.66 0.68 0.63 0.67 0.59 0.45 0.44 0.48 0.40 0.44 0.43 0.46 0.42 0.40 0.36 0.32 0.25 0.24 0.26 0.29 0.33 0.32 0.30 0.31 0.31 0.31 0.36 0.40 0.40 0.35 0.39 0.39 0.48 0.40 0.50 0.45 0.44 0.39 0.38 0.39 0.42 0.39 0.42 0.39 0.40 0.32 0.39 0.42 0.37 0.30 0.28 0.29 0.32 0.32 0.32 0.31 0.31 0.32 0.36 0.47 0.54 0.54 0.48 0.46 0.44 0.46 0.49 0.49 0.66 0.91 1.15 1.10 1.12 1.14 1.15 1.14 1.16 1.24 1.33 1.40 1.45 1.47 1.52 1.57 1.58
0.49 0.54 0.56 0.63 0.66 0.69 0.62 0.44 0.39 0.44 0.45 0.49 0.49 0.45 0.45 0.43 0.41 0.31 0.30 0.28 0.25 0.27 0.25 0.32 0.32 0.30 0.32 0.32 0.32 0.37 0.38 0.35 0.35 0.36 0.39 0.42 0.44 0.40 0.45 0.43 0.43 0.43 0.39 0.40 0.40 0.42 0.38 0.39 0.36 0.36 0.33 0.30 0.32 0.33 0.31 0.33 0.32 0.29 0.29 0.28 0.32 0.32 0.34 0.31 0.38 0.51 0.50 0.49 0.49 0.48 0.50 0.70 0.95 1.20 1.20 1.24 1.29 1.32 1.32 1.21 1.22 1.29 1.34 1.41 1.51 1.56 1.59 1.62
0.50 0.49 0.58 0.70 0.73 0.61 0.50 0.36 0.42 0.46 0.45 0.46 0.44 0.41 0.40 0.32 0.28 0.30 0.30 0.27 0.28 0.27 0.28 0.30 0.32 0.34 0.34 0.33 0.35 0.35 0.37 0.35 0.37 0.36 0.40 0.42 0.45 0.44 0.45 0.48 0.46 0.44 0.37 0.37 0.39 0.41 0.42 0.44 0.41 0.34 0.36 0.34 0.35 0.37 0.35 0.32 0.31 0.28 0.24 0.24 0.33 0.34 0.36 0.38 0.30 0.44 0.47 0.52 0.60 0.62 0.57 0.66 1.08 1.20 1.20 1.24 1.25 1.24 1.27 1.31 1.32 1.33 1.38 1.42 1.48 1.56 1.60 1.67
0.47 0.47 0.66 0.74 0.77 0.66 0.45 0.38 0.41 0.43 0.43 0.44 0.48 0.47 0.38 0.32 0.29 0.30 0.32 0.28 0.25 0.27 0.29 0.32 0.31 0.30 0.34 0.35 0.35 0.36 0.38 0.34 0.34 0.32 0.36 0.41 0.41 0.45 0.46 0.46 0.46 0.42 0.43 0.40 0.40 0.46 0.47 0.43 0.37 0.35 0.36 0.36 0.36 0.38 0.37 0.32 0.29 0.24 0.22 0.21 0.23 0.28 0.31 0.33 0.38 0.43 0.44 0.52 0.52 0.54 0.51 0.70 1.05 1.18 1.15 1.23 1.32 1.39 1.45 1.44 1.45 1.50 1.55 1.58 1.56 1.56 1.61 1.65
0.47 0.47 0.57 0.76 0.75 0.65 0.41 0.34 0.37 0.49 0.47 0.49 0.45 0.42 0.39 0.31 0.29 0.29 0.30 0.29 0.28 0.27 0.25 0.30 0.32 0.32 0.31 0.36 0.36 0.35 0.39 0.34 0.34 0.38 0.38 0.44 0.42 0.47 0.45 0.44 0.45 0.41 0.42 0.45 0.37 0.44 0.39 0.41 0.37 0.33 0.33 0.33 0.33 0.34 0.35 0.32 0.29 0.23 0.21 0.21 0.20 0.21 0.23 0.24 0.29 0.43 0.36 0.47 0.51 0.48 0.43 0.59 0.92 1.14 1.18 1.22 1.27 1.29 1.31 1.35 1.42 1.42 1.50 1.58 1.61 1.59 1.62 1.67
0.48 0.55 0.60 0.71 0.67 0.56 0.39 0.42 0.41 0.45 0.47 0.43 0.42 0.43 0.40 0.37 0.33 0.33 0.32 0.27 0.25 0.27 0.29 0.28 0.32 0.31 0.32 0.35 0.36 0.38 0.40 0.37 0.35 0.36 0.39 0.41 0.40 0.45 0.42 0.44 0.44 0.40 0.43 0.44 0.44 0.46 0.40 0.40 0.39 0.34 0.30 0.27 0.28 0.31 0.27 0.26 0.24 0.23 0.22 0.22 0.22 0.20 0.21 0.20 0.18 0.34 0.25 0.37 0.46 0.44 0.48 0.70 0.94 1.06 1.08 1.15 1.19 1.22 1.31 1.38 1.45 1.44 1.46 1.51 1.58 1.63 1.65 1.65
0.48 0.47 0.58 0.61 0.62 0.52 0.41 0.47 0.44 0.41 0.43 0.44 0.40 0.42 0.36 0.35 0.36 0.34 0.29 0.28 0.30 0.27 0.28 0.23 0.30 0.27 0.30 0.33 0.32 0.36 0.37 0.38 0.37 0.37 0.39 0.40 0.41 0.43 0.41 0.42 0.41 0.45 0.43 0.43 0.44 0.42 0.38 0.42 0.42 0.41 0.38 0.36 0.36 0.40 0.40 0.42 0.34 0.23 0.20 0.20 0.21 0.23 0.24 0.23 0.23 0.29 0.27 0.41 0.46 0.51 0.50 0.62 0.74 0.88 0.96 1.08 1.15 1.12 1.19 1.31 1.33 1.36 1.46 1.54 1.56 1.57 1.62 1.68
0.58 0.53 0.51 0.50 0.56 0.49 0.36 0.40 0.38 0.38 0.36 0.43 0.37 0.40 0.38 0.37 0.36 0.31 0.29 0.29 0.29 0.28 0.32 0.31 0.29 0.27 0.32 0.30 0.31 0.34 0.37 0.36 0.38 0.37 0.37 0.41 0.43 0.41 0.41 0.39 0.39 0.42 0.41 0.41 0.46 0.41 0.36 0.35 0.40 0.42 0.42 0.41 0.41 0.41 0.42 0.41 0.37 0.35 0.24 0.21 0.24 0.22 0.24 0.24 0.23 0.21 0.36 0.38 0.39 0.54 0.59 0.52 0.61 0.78 0.90 1.00 1.12 1.16 1.19 1.23 1.29 1.34 1.41 1.45 1.49 1.52 1.58 1.65
0.46 0.49 0.60 0.64 0.49 0.48 0.38 0.39 0.41 0.41 0.41 0.39 0.37 0.37 0.36 0.36 0.37 0.34 0.38 0.37 0.34 0.34 0.26 0.34 0.35 0.32 0.29 0.31 0.32 0.31 0.34 0.36 0.37 0.36 0.38 0.41 0.38 0.39 0.37 0.38 0.34 0.43 0.36 0.37 0.41 0.38 0.38 0.35 0.40 0.42 0.42 0.44 0.44 0.43 0.41 0.40 0.41 0.41 0.36 0.32 0.35 0.33 0.26 0.26 0.29 0.30 0.31 0.32 0.33 0.55 0.62 0.53 0.61 0.72 0.86 0.94 1.04 1.09 1.13 1.22 1.30 1.36 1.42 1.46 1.46 1.46 1.50 1.56
0.57 0.63 0.66 0.74 0.58 0.56 0.48 0.53 0.50 0.47 0.42 0.42 0.42 0.42 0.36 0.34 0.35 0.36 0.36 0.36 0.33 0.38 0.34 0.29 0.34 0.34 0.37 0.37 0.32 0.37 0.33 0.32 0.36 0.38 0.37 0.39 0.40 0.35 0.36 0.32 0.33 0.39 0.38 0.37 0.37 0.42 0.37 0.35 0.39 0.39 0.40 0.42 0.44 0.45 0.44 0.42 0.43 0.39 0.37 0.48 0.42 0.39 0.44 0.46 0.53 0.49 0.36 0.34 0.43 0.50 0.61 0.57 0.65 0.73 0.85 0.93 1.09 1.11 1.16 1.29 1.33 1.33 1.37 1.41 1.37 1.40 1.44 1.51
0.62 0.62 0.64 0.74 0.67 0.62 0.58 0.53 0.53 0.49 0.40 0.45 0.38 0.41 0.40 0.39 0.34 0.35 0.37 0.32 0.32 0.33 0.35 0.34 0.36 0.37 0.40 0.39 0.38 0.33 0.39 0.38 0.40 0.39 0.44 0.40 0.40 0.40 0.37 0.38 0.37 0.40 0.39 0.36 0.39 0.44 0.33 0.37 0.39 0.39 0.35 0.37 0.42 0.45 0.44 0.42 0.40 0.39 0.51 0.60 0.53 0.52 0.63 0.68 0.55 0.42 0.46 0.59 0.61 0.61 0.59 0.58 0.80 0.92 0.92 1.01 1.11 1.17 1.17 1.15 1.18 1.26 1.34 1.39 1.39 1.41 1.43 1.46
0.86 0.86 0.87 0.71 0.57 0.59 0.58 0.57 0.47 0.41 0.38 0.41 0.31 0.36 0.37 0.38 0.35 0.39 0.38 0.37 0.33 0.32 0.28 0.32 0.37 0.38 0.39 0.41 0.39 0.38 0.40 0.44 0.41 0.42 0.45 0.42 0.38 0.43 0.38 0.40 0.41 0.36 0.38 0.37 0.44 0.40 0.39 0.39 0.40 0.38 0.31 0.31 0.37 0.42 0.41 0.42 0.42 0.42 0.61 0.56 0.59 0.58 0.58 0.59 0.49 0.66 0.63 0.59 0.69 0.67 0.58 0.56 0.77 0.93 0.98 1.07 1.09 1.07 1.04 1.07 1.14 1.22 1.28 1.28 1.30 1.39 1.44 1.46
0.89 0.95 0.91 0.79 0.58 0.62 0.54 0.53 0.52 0.45 0.36 0.40 0.42 0.45 0.38 0.44 0.39 0.30 0.43 0.43 0.34 0.30 0.29 0.33 0.31 0.36 0.37 0.36 0.38 0.40 0.42 0.42 0.40 0.46 0.47 0.45 0.45 0.44 0.45 0.46 0.43 0.40 0.38 0.38 0.38 0.37 0.38 0.37 0.37 0.40 0.33 0.31 0.38 0.40 0.41 0.42 0.43 0.50 0.57 0.62 0.68 0.72 0.74 0.73 0.71 0.73 0.74 0.75 0.64 0.58 0.64 0.83 0.86 0.93 0.90 0.99 1.08 1.09 1.08 1.07 1.12 1.21 1.26 1.28 1.31 1.38 1.43 1.44
Wind_Speed
12 12 12 12 12 12 11 11 11 12 12 12 12 12 12 12 12 12 12 12 13 13 13 13 13 13 13 13 13 13 13 13 14 14 15 15 16 17 15 14 14 15 14 13 13 12 11 11 11 11 10 10 8 7 7 7 8 7 6 7 7 7 7 8 8 9 9 10 11 11 10 8 10 10 10 8 7 10 11 11 12 11 12 14 16 18 17 17
13 13 12 12 12 12 12 12 12 12 12 13 13 13 13 12 12 12 12 13 13 13 13 14 14 14 14 14 13 13 13 14 15 16 16 15 16 18 17 16 15 14 14 14 14 13 13 12 12 11 10 9 8 8 7 7 7 6 6 7 8 8 9 10 10 10 10 11 13 11 10 10 11 10 10 9 8 9 10 12 13 13 14 15 16 17 16 16
14 13 13 13 13 13 13 13 13 13 13 13 13 14 13 13 13 13 13 13 13 13 14 14 14 15 15 14 14 14 14 14 14 14 14 15 17 18 18 17 16 15 15 14 15 15 14 14 12 11 10 9 8 8 7 6 5 5 6 7 8 9 10 11 10 9 10 13 15 13 11 12 12 10 10 10 9 8 9 12 14 14 15 16 16 16 16 16
14 14 14 14 14 14 14 14 14 14 14 14 14 14 14 14 14 13 13 13 13 13 14 14 14 15 15 15 15 14 14 14 13 12 12 13 15 18 18 17 17 16 16 15 15 16 15 14 12 10 10 9 8 8 7 6 5 6 6 6 9 9 10 10 7 6 11 15 17 15 12 12 12 12 11 11 10 8 10 14 14 15 16 16 15 16 16 15
15 14 14 15 15 15 15 15 14 14 15 15 15 15 15 15 15 14 14 14 14 14 14 14 15 15 15 15 15 15 14 12 11 13 12 12 13 16 17 17 17 17 16 16 16 16 16 15 12 11 10 9 8 7 7 6 5 5 5 5 8 7 7 6 1 5 10 14 16 15 14 13 13 12 12 12 10 8 12 15 15 15 16 15 15 15 15 15
16 15 15 15 15 15 15 15 15 15 15 16 15 15 15 15 15 15 15 15 15 15 15 15 15 15 16 16 16 15 14 13 12 13 13 12 12 14 17 17 17 17 16 16 17 16 16 16 13 11 10 9 8 7 7 5 4 5 5 4 5 4 3 3 6 9 13 14 14 14 13 12 12 11 12 12 9 10 14 16 15 15 15 16 15 15 14 14
16 16 16 16 16 16 16 16 16 16 16 16 16 16 16 16 16 15 15 15 15 15 15 16 16 16 16 16 16 16 16 16 14 14 13 12 12 13 16 17 17 17 16 17 17 16 16 16 14 12 10 9 8 8 6 4 3 4 4 3 3 4 4 6 9 11 14 13 12 12 10 11 11 11 12 12 10 12 15 15 14 15 16 15 14 14 14 13
17 17 17 17 17 17 17 17 17 17 17 17 17 17 17 17 16 16 16 16 16 16 16 16 16 16 16 16 16 16 18 18 15 15 15 14 13 14 16 17 17 17 17 18 18 17 17 16 15 13 11 10 9 8 6 4 3 3 4 2 2 4 6 9 10 11 11 11 10 9 9 9 10 10 12 13 12 13 15 15 15 15 16 15 14 14 13 13
18 18 17 17 17 17 17 17 17 17 17 17 18 18 18 17 17 16 16 16 16 16 17 17 17 17 17 16 16 17 18 17 15 15 16 16 15 15 16 17 18 18 18 19 18 18 17 16 15 15 12 10 9 9 7 7 6 5 4 3 3 5 7 9 10 9 9 9 8 9 8 8 9 9 11 13 13 14 15 15 15 16 15 15 14 14 13 13
18 18 18 17 17 17 17 17 17 17 18 18 18 18 18 17 16 16 16 16 16 17 17 17 17 17 17 18 17 17 17 16 16 16 16 17 15 16 17 18 18 18 19 19 18 19 18 16 15 15 13 11 10 8 7 8 7 5 4 3 4 6 7 8 9 9 8 9 8 9 8 7 8 8 9 13 14 15 15 15 15 15 15 15 14 13 13 13
19 19 18 18 17 18 18 18 17 18 18 18 18 18 17 17 16 16 16 16 17 17 17 17 17 17 18 18 18 18 18 16 17 17 17 17 17 17 18 19 19 19 19 19 19 19 19 18 16 15 12 11 10 6 5 8 8 7 6 4 4 6 7 7 8 8 8 8 8 9 8 7 7 7 10 14 15 15 15 16 16 15 14 14 14 13 13 12
19 19 18 18 18 18 18 18 18 18 18 18 18 17 17 16 16 16 16 16 16 17 17 17 17 17 18 19 20 20 19 18 18 18 18 18 18 18 18 19 20 20 20 19 19 20 19 18 17 16 13 10 10 7 8 11 9 7 6 5 5 6 7 7 8 8 8 8 8 9 9 7 7 8 11 13 15 16 16 16 16 15 14 14 14 13 12 12
19 19 19 18 18 18 18 18 18 18 18 18 18 17 17 17 16 16 16 16 16 16 17 17 17 17 18 19 20 19 19 20 19 19 20 19 19 19 19 20 20 21 21 20 20 19 18 18 18 17 15 12 9 7 9 11 8 7 5 5 7 7 8 8 8 9 9 8 8 8 8 7 7 9 11 14 15 16 16 16 15 15 14 14 13 13 13 12
20 19 19 19 18 18 19 18 18 18 18 18 18 17 17 17 17 16 16 16 16 16 16 16 16 16 17 18 19 18 19 20 20 21 21 21 21 20 20 20 21 21 21 21 21 19 18 19 19 17 16 15 11 9 10 10 8 7 6 5 7 8 10 10 9 10 9 8 8 8 8 9 9 9 11 14 15 16 16 16 15 15 14 14 13 13 13 12
20 20 19 19 19 19 19 18 19 18 18 18 18 18 17 17 17 16 16 16 16 16 16 16 15 16 17 18 18 17 18 19 20 21 22 22 22 21 21 21 22 22 21 22 20 18 18 19 19 18 17 16 14 12 12 10 8 8 7 6 7 8 10 10 11 11 9 9 9 8 8 9 10 10 11 14 15 15 15 15 15 15 15 14 13 13 13 12
20 20 19 19 19 19 19 19 19 19 19 19 18 18 18 18 17 17 16 16 16 16 15 15 14 14 15 15 15 15 16 18 19 20 21 22 22 22 22 22 22 22 22 22 20 18 18 19 19 18 18 17 15 13 13 12 10 9 8 8 8 9 10 10 11 11 10 9 9 9 9 9 10 11 11 13 15 15 15 15 16 15 15 14 13 13 13 12
21 20 19 19 19 19 19 19 19 19 19 19 19 18 17 17 17 17 16 15 15 15 14 14 13 13 13 13 13 14 15 15 16 18 20 22 23 22 22 23 22 22 22 22 21 18 17 19 19 18 19 18 16 14 14 14 12 10 8 8 8 9 11 11 11 12 12 11 10 10 10 9 10 12 12 13 14 14 15 15 15 15 15 14 13 13 13 12
21 20 19 19 19 19 19 19 19 19 19 19 19 18 18 18 17 17 16 14 14 13 13 13 11 11 11 11 12 14 14 14 14 16 19 20 22 23 22 22 22 22 23 21 20 19 17 18 19 19 20 19 17 16 14 14 13 11 9 8 8 9 11 12 12 13 14 13 12 11 11 10 10 12 12 12 13 14 14 14 15 15 15 14 13 13 13 13
21 20 19 20 20 20 19 19 19 18 19 19 19 18 18 18 16 15 14 13 12 12 12 11 10 9 10 11 11 11 10 11 12 14 18 19 21 22 22 22 22 23 22 20 19 20 18 18 19 20 20 19 19 17 15 14 13 12 11 10 10 10 11 12 12 13 15 14 14 13 12 11 11 12 11 11 13 14 14 14 14 15 16 15 14 14 13 13
20 20 20 20 20 19 19 19 18 18 18 18 18 17 17 16 15 13 13 13 13 13 13 12 11 11 12 12 10 8 8 10 13 15 17 19 20 21 22 22 22 22 21 19 19 20 19 18 19 20 20 20 19 17 16 15 13 12 11 10 11 11 10 11 11 13 14 15 15 14 13 14 13 12 10 9 13 15 14 14 15 15 15 15 15 14 14 13
20 20 20 20 20 19 19 19 18 18 18 17 17 16 16 16 14 14 15 14 13 14 14 14 13 13 14 12 10 10 11 11 13 15 16 19 19 20 21 22 21 21 20 20 20 19 20 19 19 20 20 21 20 18 17 16 15 13 12 11 10 10 9 9 10 10 12 14 15 13 13 15 14 12 10 9 11 13 13 14 14 15 16 15 15 15 14 14
20 20 20 20 20 19 19 18 17 17 17 15 15 15 16 16 15 16 17 15 13 13 13 13 13 13 14 13 11 10 11 11 12 15 16 18 19 19 20 21 20 20 20 21 20 19 19 19 19 19 19 21 20 19 18 17 16 15 13 12 10 9 9 8 9 8 10 13 13 12 12 14 14 13 11 10 11 11 11 13 13 14 15 15 16 16 15 14
20 20 20 20 20 19 18 18 17 16 15 14 13 14 15 15 14 16 16 13 13 13 13 12 12 12 12 13 11 9 10 11 12 14 16 18 19 20 20 20 20 20 20 21 20 19 19 18 19 19 19 20 20 19 18 17 17 16 14 13 11 11 10 8 8 9 9 10 12 14 13 13 13 13 12 11 12 12 11 12 13 13 14 14 16 17 16 16
20 20 20 20 20 19 18 18 16 14 13 13 14 14 14 14 14 15 14 11 11 11 10 10 10 10 10 11 11 10 11 10 11 14 16 18 19 19 19 19 19 19 19 21 21 20 18 18 19 19 18 19 20 19 18 16 16 16 16 15 12 13 12 7 7 8 7 7 11 13 13 14 15 14 14 13 12 12 13 13 13 14 14 14 16 17 16 16
20 21 20 20 20 18 18 16 13 13 13 12 14 15 15 14 13 14 13 10 8 7 6 6 7 8 8 8 7 8 9 10 11 13 15 18 20 18 17 18 18 19 19 20 21 20 18 17 18 19 19 19 19 18 18 17 15 14 15 15 13 14 12 9 8 8 7 7 10 12 12 13 15 16 16 15 13 13 15 15 15 15 15 14 16 17 17 17
21 21 20 20 19 18 17 14 12 14 14 13 14 16 15 12 12 12 11 8 7 4 3 4 4 5 5 6 6 5 7 8 10 13 15 18 20 17 16 16 17 18 19 19 18 18 18 18 18 18 18 18 19 18 17 17 15 13 13 13 12 13 12 11 11 9 9 8 8 11 11 10 14 17 18 16 15 14 15 16 16 16 16 15 16 17 18 18
21 20 20 19 18 17 15 13 13 15 14 13 15 15 12 10 10 10 8 6 4 2 2 3 4 4 4 5 6 5 5 6 9 13 14 16 19 17 16 16 15 17 17 17 17 17 18 19 18 19 19 18 18 17 17 16 14 14 14 13 13 13 13 13 12 9 9 7 7 10 11 9 11 16 17 17 16 16 16 17 18 18 17 17 17 17 18 18
20 20 20 19 17 16 14 14 14 14 13 13 14 13 10 9 8 7 6 5 3 2 3 3 4 4 4 4 6 6 5 5 8 11 12 15 17 17 16 16 15 16 17 17 17 16 17 19 18 19 18 18 18 17 15 14 13 14 16 14 13 13 13 13 11 9 9 8 7 9 10 9 10 13 15 17 18 18 18 18 19 19 19 18 18 18 18 19
20 20 19 18 17 15 13 13 12 12 12 12 11 11 9 8 8 6 4 4 3 2 3 4 5 5 4 4 6 8 6 5 8 10 10 13 17 17 15 15 15 15 17 17 17 16 15 17 18 18 17 17 18 16 14 15 14 15 16 14 13 12 12 12 11 9 8 8 9 11 11 9 9 12 14 16 18 19 19 18 19 21 21 19 19 19 18 18
20 19 18 17 15 13 12 11 11 11 11 10 9 9 9 8 6 4 3 4 3 2 3 3 3 3 3 4 5 7 7 6 7 9 10 11 16 18 15 15 15 14 16 17 17 16 14 16 18 16 16 17 17 15 15 16 15 15 15 13 13 13 12 11 10 9 8 6 8 12 13 10 8 10 14 15 16 18 18 18 18 21 22 21 19 19 18 18
20 19 17 15 13 12 11 10 10 10 10 9 8 9 8 6 4 3 3 4 3 3 4 2 2 2 2 5 5 6 7 7 7 7 9 10 14 17 15 14 14 13 14 15 16 17 15 15 17 15 14 16 17 16 16 16 15 15 15 13 11 12 12 11 11 10 7 6 7 9 11 10 8 8 11 14 14 15 18 18 18 20 23 23 20 20 19 19
19 18 16 14 12 11 10 9 9 9 9 8 8 8 6 4 4 3 3 4 3 4 5 2 1 2 2 5 6 5 6 7 7 6 8 10 12 15 15 14 13 12 13 14 14 16 15 14 16 16 15 15 16 17 17 15 15 14 14 14 12 11 11 11 11 10 7 6 6 7 9 9 10 9 10 12 13 14 18 19 19 20 23 25 22 20 20 19
19 17 15 12 11 10 9 9 9 9 8 8 7 5 4 4 3 3 4 5 3 4 5 1 1 1 2 4 5 5 5 5 6 6 8 10 10 13 15 15 15 13 11 12 13 15 14 13 15 16 16 16 16 18 17 15 16 16 14 14 14 12 10 10 10 9 7 6 5 6 8 7 9 9 10 12 13 14 17 20 21 20 22 25 24 20 20 20
18 16 13 11 10 9 9 9 8 8 7 7 6 4 4 3 2 4 5 5 4 4 4 3 1 1 2 2 2 5 5 5 6 6 8 10 10 12 14 14 16 15 11 10 12 14 14 13 14 15 16 16 17 20 19 14 15 17 15 14 15 13 12 10 9 8 8 8 6 7 8 7 7 8 9 11 13 13 16 19 21 21 21 24 25 22 20 20
17 14 11 10 10 9 8 8 7 7 6 6 4 3 3 2 2 5 6 4 5 5 3 3 2 1 1 1 2 4 5 5 6 6 7 9 9 10 12 13 16 16 12 10 11 13 14 14 15 16 15 15 16 20 19 14 14 16 15 16 15 14 13 11 10 9 8 8 7 8 8 8 8 8 8 8 10 11 14 17 21 22 21 23 25 23 21 20
15 12 10 10 10 8 7 6 6 5 4 4 3 3 3 2 3 6 6 4 5 7 5 2 1 1 1 0 2 4 5 5 5 5 6 8 9 10 11 11 14 16 13 11 11 11 12 12 13 16 16 14 15 19 19 15 14 12 13 17 17 14 13 11 10 9 8 8 8 8 8 8 8 8 8 7 7 9 11 15 19 21 22 22 23 24 22 21
13 11 10 10 9 7 6 5 4 3 4 4 3 3 3 4 5 6 6 5 5 8 7 1 1 2 0 1 2 2 4 4 4 5 6 7 8 10 10 10 13 14 13 12 10 9 10 10 10 15 17 15 14 18 19 17 16 12 9 13 14 13 13 12 10 9 8 8 9 8 8 9 8 7 8 9 9 9 10 14 17 20 22 23 23 24 23 22
12 12 12 11 9 6 4 4 3 3 4 3 4 5 4 4 6 6 6 5 6 7 5 1 1 2 0 1 2 2 3 3 4 5 5 5 6 9 9 9 12 13 13 13 10 8 9 9 9 12 17 16 13 16 19 18 17 14 10 10 12 12 14 14 12 10 9 9 9 8 7 8 9 8 8 10 10 10 11 13 16 19 22 24 24 24 24 23
11 11 11 10 6 4 3 3 3 3 3 3 3 3 2 4 6 6 6 6 5 4 3 2 2 2 1 1 0 2 4 4 4 4 5 5 5 8 8 7 10 11 11 12 11 9 9 9 8 9 13 15 12 13 17 18 17 15 13 11 11 11 12 13 13 11 10 9 9 8 7 7 7 8 9 10 10 11 11 12 14 17 21 24 25 25 25 23
10 10 10 7 4 4 3 3 3 3 2 2 2 2 4 5 7 6 4 5 5 2 1 2 2 1 2 2 2 1 4 5 4 3 5 6 6 7 7 7 9 9 8 9 10 9 9 10 9 7 9 13 12 13 17 17 16 15 14 12 12 11 10 10 11 11 10 10 9 8 7 6 7 7 8 9 9 9 10 11 13 15 18 22 25 26 25 24
9 10 9 5 3 4 4 3 3 2 2 3 3 4 6 5 5 6 4 5 5 1 1 2 2 1 1 2 2 0 3 3 2 3 4 4 6 7 7 8 8 7 8 10 9 9 9 10 9 7 8 11 12 13 16 17 16 16 14 13 13 12 10 9 10 11 10 10 10 9 8 8 8 7 6 6 7 7 9 11 13 15 17 19 22 25 26 25
8 8 8 4 4 5 4 3 4 3 3 4 4 6 6 4 4 7 6 4 3 1 2 3 3 2 1 1 2 0 3 2 2 4 4 3 5 6 6 8 7 6 8 10 8 8 10 10 10 9 8 10 11 12 15 17 16 16 15 15 14 13 11 10 10 10 10 9 9 9 8 8 8 6 5 6 7 8 9 11 13 15 17 18 19 22 24 26
7 8 9 6 5 5 5 4 5 4 5 6 6 7 7 5 5 6 6 4 2 2 3 3 3 2 2 2 2 0 2 2 1 3 4 5 5 6 6 7 6 5 8 10 8 8 10 10 9 8 8 10 11 11 14 16 16 16 16 16 16 14 13 11 11 11 10 10 10 8 8 9 8 7 6 6 6 7 8 9 11 13 15 17 18 19 21 24
9 10 10 8 5 5 5 4 4 4 5 6 6 7 7 6 5 5 6 5 3 2 3 2 2 1 1 2 2 1 3 3 2 2 5 6 5 5 6 6 6 5 8 10 8 9 11 10 9 7 7 8 8 8 10 12 13 15 16 15 16 17 15 13 12 11 11 12 12 10 9 10 9 7 6 6 6 7 7 8 10 11 13 15 16 18 19 20
9 9 8 6 4 5 5 5 5 4 4 5 6 7 6 4 3 4 6 5 3 4 4 3 3 2 2 3 2 2 3 4 3 3 5 6 5 5 6 6 8 8 7 8 8 10 12 11 10 8 7 7 7 7 9 9 9 12 15 15 15 16 16 14 12 11 12 13 13 12 11 10 9 7 6 7 7 7 8 8 9 11 13 13 13 16 18 19
8 7 7 5 5 5 6 6 6 5 4 4 5 6 5 3 1 2 3 3 3 4 4 3 3 3 2 2 3 4 3 3 3 3 4 6 5 5 5 7 8 7 6 7 9 11 13 13 12 11 9 9 9 10 10 10 8 10 13 15 15 14 14 14 13 13 13 12 12 13 12 11 10 8 7 7 7 8 9 9 9 10 11 12 12 14 16 17
7 5 7 7 5 6 5 5 6 6 4 3 3 4 4 4 3 2 2 3 3 3 3 2 3 3 2 3 4 4 3 3 4 3 2 4 5 5 6 7 6 5 5 8 9 11 12 13 13 12 11 9 10 10 10 9 8 8 11 14 14 13 14 15 14 15 14 12 12 13 13 12 12 10 9 8 7 8 9 9 9 10 10 11 12 13 14 15
6 6 9 8 6 5 5 5 6 6 6 4 2 4 5 5 4 3 3 3 3 3 2 1 2 3 3 3 3 4 4 4 5 4 3 3 3 5 8 7 6 6 5 6 8 10 12 13 13 12 11 10 9 10 10 9 9 9 9 9 7 8 10 12 12 14 16 16 15 15 14 12 12 11 10 9 8 8 8 8 9 10 11 11 11 12 13 13
8 8 9 9 6 5 6 6 6 6 6 5 4 5 5 5 5 4 3 3 3 3 2 2 3 3 3 2 2 4 4 5 5 5 6 5 4 4 6 6 6 7 6 6 7 8 10 13 14 13 13 11 10 10 10 10 10 8 6 5 3 2 4 6 6 7 12 15 16 16 15 12 11 11 10 10 10 9 8 8 9 10 11 11 11 12 12 12
9 9 9 8 6 6 7 7 5 5 4 4 4 5 6 5 4 4 4 4 3 4 3 4 4 3 3 3 2 4 4 5 5 6 6 6 6 6 6 7 7 6 7 6 6 7 9 10 12 13 13 13 12 12 11 10 10 7 4 3 4 4 4 5 5 6 9 12 15 15 14 12 10 10 10 11 11 10 10 9 9 10 11 10 10 11 12 12
9 9 8 8 6 6 6 5 4 5 4 3 4 5 5 5 4 4 4 4 4 4 3 4 4 3 3 3 2 3 4 4 5 7 8 7 7 7 7 7 7 6 7 7 6 8 9 9 10 12 13 13 14 13 12 11 9 6 3 4 4 5 6 5 6 8 9 11 13 13 12 12 11 10 10 11 11 12 11 11 10 10 10 10 10 10 11 11
9 9 8 7 7 7 6 4 4 5 4 4 4 4 4 5 4 3 3 3 5 5 4 5 5 3 4 5 4 4 5 5 5 6 8 8 8 9 9 9 8 7 7 8 8 8 9 9 10 10 11 13 13 13 13 11 8 5 5 6 5 5 6 6 6 7 9 11 13 13 12 12 12 11 11 11 12 12 11 11 10 10 10 9 9 9 9 9
Wind_Direction
338 336 334 332 331 330 328 327 325 323 321 319 317 314 311 306 301 297 293 289 286 284 282 281 279 278 277 276 274 273 271 266 261 253 247 243 235 232 234 234 229 225 225 226 224 223 222 222 224 229 234 237 235 236 244 240 234 230 240 264 275 279 275 271 258 244 239 212 194 189 183 177 168 167 165 157 162 157 145 142 143 140 137 135 135 138 141 139
336 333 331 329 328 326 325 324 323 322 321 319 317 314 311 308 304 300 296 292 288 285 283 281 280 278 277 276 274 273 271 265 260 254 248 243 235 231 232 231 227 223 224 224 222 220 219 220 222 224 228 233 231 231 242 240 232 234 247 265 274 279 280 274 260 248 238 208 187 180 176 175 171 166 166 161 160 157 146 143 141 136 136 137 139 141 141 138
335 333 331 329 327 325 323 322 321 320 320 319 317 314 311 308 305 302 298 294 291 287 284 282 280 279 278 276 274 274 271 266 259 252 249 243 234 230 228 227 226 224 225 224 221 218 219 222 222 220 221 227 230 233 238 230 230 252 262 270 280 288 289 281 272 255 229 198 177 173 172 171 170 164 169 165 157 165 157 146 140 138 140 142 144 144 142 139
335 333 331 330 328 325 323 321 320 319 318 318 317 314 311 309 306 302 299 295 292 289 286 283 281 280 278 276 274 273 270 265 254 245 247 245 234 228 225 224 224 224 225 224 221 221 225 227 225 224 223 223 230 234 236 231 234 261 268 280 294 299 301 299 284 240 208 187 172 169 168 169 172 167 171 167 160 171 160 146 142 140 144 145 146 147 145 142
336 334 332 330 328 326 324 322 319 318 317 316 316 314 311 309 306 302 299 296 292 289 287 284 282 280 279 276 273 271 267 259 250 243 245 245 235 227 223 222 222 223 224 223 221 223 228 226 222 227 224 221 232 232 235 236 226 253 267 293 313 317 318 330 29 162 171 170 165 163 165 170 173 170 170 165 163 169 156 149 146 141 144 146 147 149 147 143
337 334 332 330 328 326 324 322 320 317 316 314 314 312 310 307 304 302 299 296 293 290 287 284 282 280 279 276 271 268 260 253 252 246 243 243 237 228 223 220 221 222 221 220 219 221 225 221 215 220 220 217 227 229 236 233 208 238 269 308 342 359 8 54 103 128 141 149 156 159 164 167 165 166 165 162 165 160 150 152 151 144 145 146 148 150 147 145
338 334 331 329 328 326 325 322 320 318 316 314 312 311 309 306 303 301 298 295 292 290 287 285 283 281 279 275 268 264 257 254 253 245 242 242 239 232 225 221 220 219 217 217 217 218 222 217 211 215 217 215 218 226 228 218 200 221 259 306 19 55 80 105 121 130 136 143 152 156 159 161 159 161 161 161 166 156 149 153 152 148 148 147 150 150 148 149
338 334 331 328 327 326 325 322 320 319 317 314 312 310 308 305 302 300 297 294 292 290 287 284 283 281 279 274 267 264 258 252 247 242 243 243 241 234 225 221 220 217 215 215 215 217 218 214 211 213 215 216 221 230 211 197 240 226 228 259 73 95 110 121 130 133 139 144 149 154 152 154 159 160 160 164 165 154 151 154 153 152 150 150 152 151 152 153
338 335 331 328 326 326 324 322 321 319 318 315 313 311 308 306 303 299 297 294 292 289 287 285 282 280 277 273 267 264 258 247 242 243 244 242 240 234 225 221 218 215 214 216 216 219 219 213 211 213 217 223 232 242 221 210 241 229 205 199 128 128 127 130 137 136 144 150 149 152 151 153 159 159 161 166 163 155 152 154 155 155 153 153 153 154 157 155
337 334 331 328 326 325 324 323 321 320 318 316 314 312 310 307 304 301 297 295 292 289 288 285 282 280 275 271 266 261 258 249 244 245 243 239 236 230 224 220 216 214 214 215 216 219 219 213 211 213 219 226 231 243 232 215 219 203 178 157 144 148 142 140 144 144 151 155 150 147 151 160 161 160 164 166 163 157 155 155 157 158 157 156 154 157 159 156
336 333 331 328 326 325 324 323 321 320 318 317 316 314 311 309 305 302 299 296 293 290 288 286 283 280 275 272 265 259 257 252 248 244 241 238 232 228 224 219 215 213 214 215 217 218 216 214 215 213 214 220 223 227 209 195 190 174 155 141 151 156 153 149 149 156 162 159 153 148 153 160 158 166 171 167 165 161 158 157 159 160 159 158 157 159 160 157
335 332 330 327 325 324 323 322 321 320 319 318 317 315 313 310 307 304 301 298 294 291 289 287 284 280 277 272 264 259 255 254 251 240 236 237 231 227 223 218 215 212 212 214 217 216 213 216 218 215 215 217 219 219 195 185 181 174 163 158 171 170 168 168 165 170 171 166 165 157 156 161 165 176 173 165 165 164 161 161 161 162 160 161 161 160 161 158
334 332 329 326 324 324 323 322 321 320 319 318 317 316 314 311 309 306 303 299 296 293 291 289 286 282 280 273 265 262 255 252 251 239 236 237 231 226 223 218 215 212 212 216 219 217 215 217 218 218 221 216 212 215 193 181 182 184 180 178 179 180 183 188 185 176 170 172 178 169 163 171 179 184 173 165 167 165 164 166 164 162 162 163 163 160 161 160
333 331 328 325 323 323 322 322 321 320 319 318 317 315 313 312 310 307 304 301 298 296 293 291 288 284 280 273 267 265 256 251 249 242 237 233 228 225 221 217 215 214 214 218 221 221 220 218 217 220 218 212 209 211 198 189 194 194 191 194 189 187 187 190 192 180 172 182 192 182 171 176 181 184 175 168 171 169 168 169 166 164 164 165 165 161 163 164
332 330 328 325 323 322 322 321 320 320 319 318 317 315 313 312 310 308 305 302 300 298 296 293 288 286 282 274 270 265 257 252 247 240 233 228 225 222 219 216 215 214 215 218 218 221 222 216 215 217 213 212 213 210 205 200 205 204 197 197 198 193 189 192 196 189 181 188 197 190 175 175 180 181 177 173 173 171 171 171 168 167 166 167 167 164 165 168
330 329 327 324 323 322 321 321 320 319 319 318 317 315 313 313 311 309 306 303 301 298 297 294 288 286 282 277 273 264 256 252 245 236 229 224 222 219 215 214 214 213 214 215 215 219 221 214 213 215 211 210 208 203 206 206 207 210 203 198 200 197 195 197 200 199 191 186 194 193 180 176 180 183 180 177 175 174 174 173 171 170 168 170 171 168 169 169
329 328 326 324 323 322 321 320 320 319 319 318 317 315 314 314 313 311 307 305 301 296 294 291 289 285 278 277 278 264 255 252 243 232 225 221 220 217 212 212 213 211 212 213 215 217 216 210 209 211 208 207 206 205 210 210 207 207 205 203 203 201 200 199 201 205 198 188 193 195 187 181 182 183 181 179 178 177 176 174 175 173 171 175 175 171 172 171
328 327 326 325 323 322 321 321 320 319 319 319 317 314 312 313 313 311 308 305 300 295 293 287 283 283 276 276 277 267 256 247 238 228 221 219 219 216 211 210 210 208 209 212 213 213 211 208 207 207 207 207 207 209 210 210 207 203 203 204 203 209 211 206 204 205 200 196 197 197 195 191 187 184 183 181 179 179 179 177 177 175 175 179 179 174 174 174
328 327 326 325 323 322 322 321 321 320 320 319 317 314 312 313 314 310 304 302 296 292 293 284 269 272 282 281 276 272 258 239 235 228 219 217 216 214 211 209 207 206 207 208 208 208 207 206 206 206 208 207 208 211 210 210 207 200 201 204 202 209 216 213 212 207 202 203 204 201 198 196 192 186 185 186 181 181 184 181 179 179 180 184 181 176 178 178
328 327 327 325 324 322 322 322 322 321 321 321 320 318 317 319 321 316 305 296 288 285 287 280 261 260 280 285 276 270 260 245 241 230 219 216 212 210 209 207 206 206 207 207 206 206 206 207 208 207 208 207 209 211 210 212 206 193 197 202 198 202 209 212 215 213 210 208 206 204 198 197 197 186 184 194 188 186 189 186 184 183 183 186 184 179 183 183
329 328 328 326 324 323 323 323 322 321 322 321 321 320 318 319 322 319 310 299 288 282 280 275 261 259 271 276 272 268 263 254 242 228 218 214 209 206 206 205 205 206 207 207 206 205 206 209 209 208 208 208 211 210 209 214 208 196 198 198 194 200 206 210 213 216 219 214 210 210 202 199 202 192 189 200 195 190 192 190 189 187 184 188 186 182 185 183
330 329 328 326 325 324 323 323 322 321 321 321 322 320 318 316 315 315 312 303 294 285 276 269 264 267 268 268 274 272 261 250 235 223 215 209 206 204 202 203 205 205 205 205 206 205 206 210 210 209 207 207 211 213 215 219 213 205 203 198 199 201 203 213 218 216 219 216 214 215 209 204 205 198 195 201 199 196 195 193 192 190 189 190 186 184 187 182
330 329 328 327 326 324 324 323 321 320 321 321 320 320 321 317 312 317 315 303 298 292 276 260 261 270 267 263 267 266 256 244 228 217 210 204 203 202 200 202 204 204 203 204 206 204 205 210 210 210 207 205 208 213 218 219 213 209 204 201 205 202 202 215 215 210 214 214 211 209 209 209 207 204 204 203 202 204 203 199 198 196 196 194 187 188 190 183
330 329 329 327 326 325 324 323 322 323 323 321 318 319 323 320 314 322 321 304 298 297 281 262 261 269 267 261 257 256 253 240 223 212 204 202 200 199 200 202 202 204 204 204 206 206 207 207 206 208 209 207 208 211 216 215 210 212 209 206 208 205 205 208 196 194 202 210 205 201 207 212 209 208 209 207 206 209 209 207 204 202 203 200 191 190 190 186
330 330 329 328 327 326 324 323 324 328 326 322 324 323 321 317 315 323 323 307 301 299 284 276 275 275 267 254 249 250 242 231 223 209 200 200 199 196 200 201 201 204 204 203 206 208 208 207 204 204 207 209 211 211 212 209 210 216 210 202 202 199 198 192 176 176 188 204 203 198 204 212 210 210 210 207 208 211 211 210 208 205 205 203 195 190 190 188
330 330 329 328 327 325 324 325 326 326 319 315 325 326 318 315 316 325 328 312 306 302 287 296 296 290 269 240 237 243 229 224 218 204 197 199 199 199 200 200 200 203 204 202 205 206 207 208 205 202 204 208 209 208 207 207 211 214 202 192 193 194 193 189 184 187 197 202 201 200 204 209 211 212 210 207 208 211 210 210 210 207 205 204 197 191 190 190
330 330 329 328 327 327 325 324 324 324 317 315 325 327 322 319 319 329 334 321 316 308 290 311 310 307 280 236 227 225 221 223 208 196 196 198 199 202 203 201 199 201 203 203 205 206 205 208 207 204 204 205 205 205 206 207 209 202 188 183 189 193 192 189 189 197 201 193 193 204 206 208 214 212 207 206 209 211 210 209 210 208 205 204 199 194 192 190
330 330 330 328 327 326 323 322 324 326 323 321 327 330 330 330 328 334 339 336 346 325 296 312 315 311 292 239 219 211 215 217 196 188 192 195 197 200 202 202 202 203 204 204 206 204 202 208 208 203 204 204 204 205 204 202 202 191 182 183 190 192 189 187 189 195 195 189 193 205 205 207 216 211 204 206 211 213 211 209 210 209 206 205 201 197 194 192
330 330 330 328 326 324 322 325 326 330 333 330 331 335 335 331 333 344 345 337 342 329 317 318 310 299 276 228 208 210 211 196 189 192 195 197 198 197 198 203 207 207 205 206 208 203 201 208 206 202 204 203 202 205 202 196 195 189 186 190 194 190 185 189 195 194 190 196 203 203 200 201 213 212 206 208 212 214 212 209 210 209 206 205 202 200 197 195
330 330 329 328 328 327 328 328 327 332 337 335 333 331 330 331 339 352 349 341 348 347 340 336 327 304 239 201 194 207 210 190 183 196 203 202 198 197 200 207 209 210 208 208 210 211 207 204 204 207 209 202 200 204 200 194 194 193 191 194 192 189 190 194 199 195 191 211 216 204 201 205 215 216 211 212 214 212 208 208 209 208 207 206 203 201 199 197
329 330 329 328 328 330 330 328 331 337 337 336 332 326 328 343 0 12 1 349 359 355 339 340 7 9 198 197 189 193 209 203 185 190 199 195 194 195 200 205 205 208 210 207 208 211 208 203 204 209 206 198 199 204 201 199 204 203 199 199 191 190 198 198 200 202 201 218 226 207 204 216 227 225 219 219 218 210 207 209 208 207 206 205 204 202 200 199
329 328 327 325 324 324 325 326 331 337 336 335 330 328 340 357 1 7 346 337 349 352 342 337 59 41 164 197 197 189 205 206 190 190 192 188 192 196 198 199 198 200 205 205 204 203 205 207 206 205 202 198 199 202 202 206 209 205 202 202 196 195 202 204 204 207 210 218 225 208 202 221 236 233 225 222 219 212 209 209 207 207 205 204 205 204 200 200
329 328 326 323 322 323 323 324 328 331 333 333 327 332 355 2 358 343 333 346 6 355 353 11 152 94 141 184 198 193 195 193 189 195 193 188 192 197 199 201 199 195 197 202 202 197 201 210 205 201 201 201 202 199 199 205 205 203 205 200 198 203 206 211 213 210 215 221 223 211 205 225 243 240 233 226 220 214 210 207 205 206 205 203 205 204 200 200
329 328 327 325 324 322 320 321 325 329 332 331 326 337 352 350 356 347 352 22 26 360 7 17 19 141 166 183 200 200 197 191 193 195 191 191 194 197 201 203 202 200 199 202 202 198 201 208 205 202 200 202 206 202 200 207 205 206 212 202 201 210 208 210 217 212 216 217 216 219 220 232 240 242 248 234 218 211 210 208 205 204 206 204 204 205 202 201
330 330 328 327 325 322 319 318 319 324 326 326 329 354 357 336 346 353 356 10 360 354 1 357 11 104 200 233 229 221 203 192 200 200 192 195 198 196 196 201 202 203 205 206 204 201 204 208 208 205 199 200 206 204 204 211 211 213 216 206 205 216 212 208 214 214 217 217 216 223 228 235 239 249 259 236 210 208 209 208 205 204 205 205 205 206 204 202
333 334 329 327 325 325 325 319 319 319 314 319 331 350 349 321 328 344 342 339 347 346 336 332 43 9 295 215 255 235 195 186 201 204 197 200 207 203 196 197 198 200 204 204 201 203 207 213 212 204 199 200 206 206 204 203 205 212 215 209 211 217 211 204 207 214 220 223 224 228 232 237 243 254 257 233 211 217 216 210 206 204 204 204 206 207 205 204
335 334 328 323 322 326 329 323 327 320 303 309 316 314 314 302 310 326 330 325 327 332 335 4 105 333 291 185 290 238 189 192 197 199 198 198 208 209 200 195 197 201 202 200 202 207 206 217 222 208 204 209 209 206 206 203 200 201 207 212 213 214 211 203 205 214 216 221 228 232 237 237 236 247 247 229 215 219 221 213 208 205 204 205 207 208 206 205
334 332 325 317 313 318 322 322 326 314 308 314 308 306 305 294 306 334 349 331 314 330 353 40 283 321 191 208 284 206 189 194 185 191 191 187 201 203 197 198 199 200 201 200 204 204 198 211 227 211 203 205 203 200 204 207 206 207 212 214 206 207 210 206 209 216 214 222 231 233 242 242 233 233 232 223 216 214 214 211 207 205 205 205 207 208 207 207
337 337 329 323 324 327 323 322 317 306 308 314 313 320 329 309 308 328 353 346 324 334 5 351 328 356 20 342 36 184 199 196 197 203 189 196 209 195 195 206 198 196 204 207 206 204 198 201 215 213 198 194 196 199 201 205 209 214 219 215 205 205 208 207 210 213 210 219 228 230 241 244 236 234 229 222 217 213 209 206 205 205 204 205 207 208 207 208
339 339 332 331 353 354 334 327 314 308 311 309 307 304 309 314 311 310 334 349 337 332 350 332 331 353 340 344 11 193 205 205 214 209 187 204 211 194 201 208 192 196 210 205 200 202 199 196 204 214 198 191 198 203 201 203 207 210 212 214 212 210 207 207 212 214 211 216 222 226 236 242 243 247 240 228 223 217 210 203 201 201 201 204 207 208 208 208
337 340 333 328 346 342 329 322 310 304 305 297 298 298 297 309 324 317 314 325 329 307 276 327 320 311 332 341 351 320 197 207 210 188 175 191 197 194 207 203 190 203 208 196 196 200 197 195 202 215 211 204 207 207 204 206 208 208 208 212 214 213 211 208 213 219 217 214 216 221 229 239 247 249 243 233 226 217 206 199 198 199 199 202 206 210 210 209
332 342 341 334 337 330 316 312 309 298 288 286 295 303 297 294 324 330 327 322 334 311 278 326 335 306 274 285 330 143 178 189 181 188 186 184 184 184 200 204 207 224 208 196 206 211 199 195 204 220 225 214 215 214 209 211 215 214 214 214 215 219 219 211 211 218 217 210 212 220 230 237 244 244 239 231 216 204 201 198 198 200 202 203 206 210 212 211
326 328 325 316 315 315 306 308 308 296 286 284 288 292 287 278 298 335 351 338 334 336 299 312 333 304 222 234 304 309 189 213 184 185 191 191 185 183 201 209 210 221 202 195 213 216 200 200 211 225 226 215 219 220 208 209 216 219 219 218 218 222 224 220 217 216 215 213 212 220 232 232 236 240 238 230 210 197 201 200 197 201 204 206 207 208 210 210
324 318 314 304 299 303 298 302 309 308 305 298 292 293 292 281 277 308 337 334 324 331 314 310 331 320 226 253 283 238 197 204 210 220 203 195 191 201 223 216 197 194 189 194 209 206 197 202 208 215 219 215 222 221 204 205 216 220 220 220 221 224 226 230 227 219 219 219 213 216 228 229 234 241 232 220 205 195 200 200 197 201 201 203 207 207 208 208
324 321 315 302 294 300 293 288 293 294 300 298 293 298 299 286 271 284 300 316 317 300 294 296 302 280 250 261 257 223 213 202 207 234 214 199 202 219 230 217 200 194 195 210 221 206 200 203 199 197 206 210 213 210 203 209 221 222 221 224 225 224 225 229 224 218 223 222 210 211 220 224 231 238 225 210 199 194 199 198 197 202 201 199 204 207 210 210
326 329 327 309 290 297 289 277 283 281 280 289 292 297 290 270 320 326 303 323 326 292 284 288 292 289 266 252 230 219 222 196 191 221 210 199 213 223 212 209 209 204 215 237 231 210 206 208 205 204 210 215 217 215 212 218 226 224 222 224 224 226 229 229 225 222 222 216 213 215 212 209 218 224 216 209 199 195 198 195 195 200 198 197 201 203 206 210
321 326 333 322 294 294 289 267 270 273 273 289 292 283 276 271 289 314 300 308 309 293 295 294 288 295 290 264 239 227 231 202 197 224 207 195 226 226 202 211 226 216 219 230 222 211 210 213 215 217 219 223 225 225 227 228 230 234 229 223 225 235 235 227 228 230 217 207 216 219 207 202 210 212 208 208 203 199 197 193 192 192 189 189 194 196 200 207
301 304 323 324 295 286 295 280 276 275 268 272 269 261 270 274 273 282 285 287 306 320 317 284 281 292 296 277 241 231 238 227 228 242 216 201 239 217 197 209 220 204 206 218 215 210 210 214 221 223 227 234 232 231 231 227 226 235 234 221 226 249 242 231 238 238 221 211 214 213 207 206 208 207 205 201 196 194 193 187 186 186 185 185 188 192 196 202
294 298 312 317 296 280 289 287 289 285 266 257 258 263 275 279 270 272 264 253 293 330 290 267 291 306 320 313 242 233 242 236 243 243 220 224 250 223 202 211 213 208 217 222 218 213 208 216 225 226 229 235 235 234 232 228 231 237 238 226 213 233 248 244 245 229 213 210 206 202 205 210 209 208 203 192 185 185 183 180 181 183 185 188 193 197 200 201
298 302 306 306 295 287 288 281 280 284 262 242 251 257 267 277 274 270 251 242 293 316 275 265 279 282 314 323 248 225 232 234 241 237 224 230 240 227 216 215 219 233 233 218 214 212 207 218 228 226 228 231 233 235 231 227 227 224 228 238 211 202 229 241 229 207 197 196 194 195 201 207 208 205 196 189 187 187 186 183 181 182 186 188 190 196 201 203
297 300 302 296 279 276 284 273 265 273 249 227 250 251 255 269 266 256 250 255 287 291 275 284 285 267 283 299 270 235 230 236 246 235 226 231 233 225 222 218 224 242 231 216 221 219 214 226 231 224 226 230 231 232 233 231 225 215 236 261 231 211 217 219 216 209 195 186 189 196 204 209 207 201 196 197 197 196 197 197 192 190 193 194 192 194 199 203
298 295 297 293 271 260 264 256 259 270 248 237 252 241 245 265 260 239 240 265 275 272 280 293 291 274 259 257 266 274 260 261 270 247 233 242 245 232 223 222 232 243 231 227 235 229 219 225 229 222 224 228 230 233 235 231 224 224 248 252 231 208 205 202 202 201 196 195 199 205 212 213 206 201 203 205 204 204 207 206 200 194 193 194 191 192 195 197